BEIJING 1 1 28890U 05043A 26163.84342263 .00000523 00000+0 11021-3 0 9996 2 28890 98.2899 297.0321 0013499 298.4909 61.4932 14.63530903100016 HUANJING 1A (HJ-1A) 1 33320U 08041A 26163.85094352 .00001202 00000+0 15019-3 0 9991 2 33320 97.6677 149.8565 0019648 148.4052 211.8347 14.83976598957765 HUANJING 1B (HJ-1B) 1 33321U 08041B 26163.88550841 .00000731 00000+0 94658-4 0 9998 2 33321 97.6515 153.0746 0035615 195.1845 164.8304 14.83310437957771 YAOGAN-4 1 33446U 08061A 26163.78199683 .00000954 00000+0 12324-3 0 9996 2 33446 97.9309 97.3249 0015776 85.4540 274.8475 14.83192445945012 DEIMOS-1 1 35681U 09041A 26163.84543818 .00000351 00000+0 58913-4 0 9994 2 35681 97.7394 321.2617 0001359 135.9172 224.2146 14.75232766906247 UK-DMC 2 1 35683U 09041C 26163.81942100 .00001220 00000+0 18432-3 0 9997 2 35683 97.8825 298.8929 0001281 76.0339 284.1013 14.76033047905922 DMC3-FM1 1 40715U 15032A 26163.89508302 .00000227 00000+0 32105-4 0 9996 2 40715 97.6475 29.2388 0007096 70.4418 289.7564 14.85732218589278 DMC3-FM2 1 40716U 15032B 26163.91715200 .00000729 00000+0 89847-4 0 9999 2 40716 97.6529 30.8308 0007639 75.3084 284.8978 14.85739152589274 DMC3-FM3 1 40717U 15032C 26163.87309788 .00001026 00000+0 12404-3 0 9990 2 40717 97.6582 32.5390 0006920 75.2967 284.9016 14.85731204589279